Location: Peterborough
(44.3091°N, 78.3197°W)
Time: 04:02:34
(UTC-04:00)

Vanguard 1 - All Passes

Search period start: 02 April 2023 00:00
Search period end: 12 April 2023 00:00
Orbit: 648 x 3832 km, 34.3° (Epoch: 01 April)

Date Brightness Start Highest point End Pass type
(mag) Time Alt. Az. Time Alt. Az. Time Alt. Az.
02 Apr - 11:09:30 10° S 11:22:14 25° SE 11:38:17 10° E daylight
02 Apr - 13:26:14 10° SW 13:44:44 52° SSE 14:06:29 10° E daylight
02 Apr - 15:48:14 10° WSW 16:10:23 64° S 16:30:44 10° ESE daylight
02 Apr - 18:13:34 10° W 18:35:43 53° SSW 18:51:57 10° SE daylight
02 Apr - 20:42:20 10° W 20:57:33 26° SW 21:08:36 10° S visible
03 Apr - 11:28:10 10° SSW 11:42:06 32° SE 12:00:19 10° E daylight
03 Apr - 13:46:20 10° SW 14:05:20 57° SSE 14:27:29 10° E daylight
03 Apr - 16:08:59 10° W 16:31:16 64° S 16:51:20 10° ESE daylight
03 Apr - 18:34:43 10° W 18:56:09 47° SSW 19:11:53 10° SE daylight
03 Apr - 21:04:56 10° W 21:17:14 19° SW 21:26:47 10° SSW visible
04 Apr - 09:38:31 10° SE 09:42:03 11° ESE 09:45:53 10° ESE daylight
04 Apr - 11:47:21 10° SSW 12:02:08 38° SE 12:21:56 10° E daylight
04 Apr - 14:06:37 10° WSW 14:26:04 61° SSE 14:48:24 10° E daylight
04 Apr - 16:29:48 10° W 16:52:08 62° S 17:11:51 10° ESE daylight
04 Apr - 18:56:00 10° W 19:16:25 41° SW 19:31:35 10° SSE daylight
04 Apr - 21:29:03 10° W 21:36:48 14° WSW 21:43:26 10° SSW visible
05 Apr - 09:53:11 10° SSE 10:01:35 17° SE 10:12:02 10° E daylight
05 Apr - 12:06:54 10° SSW 12:22:19 45° SSE 12:43:18 10° E daylight
05 Apr - 14:27:04 10° WSW 14:46:54 63° S 15:09:16 10° E daylight
05 Apr - 16:50:42 10° W 17:12:55 59° SSW 17:32:12 10° SE daylight
05 Apr - 19:17:29 10° W 19:36:31 35° SW 19:50:56 10° SSE daylight
06 Apr - 10:10:49 10° S 10:21:13 23° SE 10:35:09 10° E daylight
06 Apr - 12:26:43 10° SW 12:42:40 50° SSE 13:04:30 10° E daylight
06 Apr - 14:47:37 10° WSW 15:07:47 64° S 15:30:04 10° ESE daylight
06 Apr - 17:11:40 10° W 17:33:36 54° SSW 17:52:24 10° SE daylight
06 Apr - 19:39:17 10° W 19:56:27 28° SW 20:09:52 10° S daylight
07 Apr - 10:29:25 10° S 10:40:58 29° SE 10:57:20 10° E daylight
07 Apr - 12:46:47 10° SW 13:03:11 56° SSE 13:25:36 10° E daylight
07 Apr - 15:08:16 10° WSW 15:28:42 64° S 15:50:46 10° ESE daylight
07 Apr - 17:32:42 10° W 17:54:08 49° SSW 18:12:22 10° SE daylight
07 Apr - 20:01:41 10° W 20:16:15 22° SW 20:28:07 10° S visible
08 Apr - 10:48:34 10° SSW 11:00:53 36° SE 11:19:04 10° E daylight
08 Apr - 13:07:00 10° WSW 13:23:50 60° SSE 13:46:38 10° E daylight
08 Apr - 15:28:59 10° W 15:49:36 62° S 16:11:21 10° ESE daylight
08 Apr - 17:53:52 10° W 18:14:30 43° SW 18:32:04 10° SSE daylight
08 Apr - 20:25:15 10° W 20:35:57 16° SW 20:45:11 10° SSW visible
09 Apr - 08:55:38 10° SSE 09:01:15 14° ESE 09:08:03 10° E daylight
09 Apr - 11:08:06 10° SSW 11:20:58 42° SE 11:40:30 10° E daylight
09 Apr - 13:27:23 10° WSW 13:44:36 62° S 14:07:37 10° E daylight
09 Apr - 15:49:46 10° W 16:10:25 59° SSW 16:31:47 10° SE daylight
09 Apr - 18:15:14 10° W 18:34:44 36° SW 18:51:27 10° SSE daylight
09 Apr - 20:54:19 10° WSW 20:55:33 10° WSW 20:56:45 10° SW visible
10 Apr - 09:12:48 10° SSE 09:20:49 19° SE 09:31:42 10° E daylight
10 Apr - 11:27:54 10° SW 11:41:13 48° SSE 12:01:48 10° E daylight
10 Apr - 13:47:51 10° WSW 14:05:26 63° S 14:28:30 10° ESE daylight
10 Apr - 16:10:37 10° W 16:31:09 54° SSW 16:52:02 10° SE daylight
10 Apr - 18:36:54 10° W 18:54:49 30° SW 19:10:22 10° S daylight
11 Apr - 09:31:18 10° S 09:40:30 26° SE 09:54:04 10° E daylight
11 Apr - 11:47:55 10° SW 12:01:38 54° SSE 12:22:59 10° E daylight
11 Apr - 14:08:24 10° WSW 14:26:17 63° S 14:49:18 10° ESE daylight
11 Apr - 16:31:33 10° W 16:51:46 49° SSW 17:12:03 10° SE daylight
11 Apr - 18:59:08 10° W 19:14:46 23° SW 19:28:39 10° S daylight
